Аэропорт
Уйташ (URML)

 URML / MCX
ЗЦ Ростов-на-Дону
Ростов-на-Дону (URRV)
Ростов-на-Дону (URRV)
 42.81680, 47.65230  / 12 ft

 URML 230030Z 30003MPS 9999 NSC 03/M00 Q1024 R32/010070 NOSIG RMK QFE767/1023

показать схемы

Аэропорт Махачкалы — Уйташ

 

 

Аэропорт Уйташ имени дважды Героя Советского Союза Амет-Хана Султана — аэропорт города Махачкала, столицы Дагестана, основной аэропорт республики. Аэропорт расположен в 4,5 км от города Каспийска и в 16,2 км от ближайшего микрорайона Махачкалы. Аэропорт Уйташ — первого класса, помимо гражданской авиации, используется авиацией ФСБ РФ и МВД РФ.

ВПП 14/32, 2640х45м, асфальтобетон.

Аэродром Уйташ способен принимать самолёты:
Airbus A320, Boeing 757, Ил-86
и все более легкие,
принимает вертолёты всех типов.

Максимальный взлетный вес воздушного судна 150 т.

 

Аэропорт Махачкалы обслуживают авиакомпании SCAT, Газпромавиа, РусЛайн, ВИМ-Авиа, ЮТэйр, Red Wings.



2019 © VATRUS division (Privacy Policy)